QPF
0.00 0.00 0.00 0.00 0.00 0.00 0.00 0.00 0.00 0.00 0.00 0.00 0.00 0.00 0.00 0.00 0.00 0.00 0.00 0.00 0.00 0.00 0.00 0.00 0.00 0.00 0.00 0.00 0.00 0.00 0.03 0.05 0.02 0.00 0.00 0.00 0.00 0.00 0.00 0.00 0.00 0.00 0.00 0.00 0.00
0.00 0.00 0.00 0.00 0.00 0.00 0.00 0.00 0.00 0.00 0.00 0.00 0.00 0.00 0.00 0.00 0.00 0.00 0.00 0.00 0.00 0.00 0.00 0.00 0.00 0.00 0.00 0.00 0.00 0.00 0.02 0.01 0.00 0.00 0.00 0.00 0.00 0.00 0.00 0.00 0.00 0.00 0.00 0.00 0.00
0.00 0.00 0.00 0.00 0.00 0.00 0.00 0.00 0.00 0.00 0.00 0.00 0.00 0.00 0.00 0.00 0.00 0.00 0.00 0.00 0.00 0.00 0.00 0.00 0.00 0.00 0.00 0.00 0.00 0.00 0.01 0.00 0.00 0.00 0.00 0.00 0.00 0.00 0.00 0.00 0.00 0.00 0.00 0.00 0.00
0.00 0.00 0.00 0.00 0.00 0.00 0.00 0.00 0.00 0.00 0.00 0.00 0.00 0.00 0.00 0.00 0.00 0.00 0.00 0.00 0.00 0.00 0.00 0.00 0.00 0.00 0.00 0.00 0.00 0.03 0.00 0.00 0.00 0.00 0.00 0.00 0.00 0.00 0.00 0.00 0.00 0.00 0.00 0.00 0.00
0.00 0.00 0.00 0.00 0.00 0.00 0.00 0.00 0.00 0.00 0.00 0.00 0.00 0.00 0.00 0.00 0.00 0.00 0.00 0.00 0.00 0.00 0.00 0.00 0.00 0.00 0.00 0.00 0.01 0.02 0.00 0.00 0.00 0.00 0.00 0.00 0.00 0.00 0.00 0.00 0.00 0.00 0.00 0.00 0.00
0.00 0.00 0.00 0.00 0.00 0.00 0.00 0.00 0.00 0.00 0.00 0.00 0.00 0.00 0.00 0.00 0.00 0.00 0.00 0.00 0.00 0.00 0.00 0.00 0.00 0.00 0.00 0.00 0.00 0.00 0.01 0.00 0.00 0.00 0.00 0.00 0.00 0.00 0.00 0.00 0.00 0.00 0.00 0.00 0.00
0.00 0.00 0.00 0.00 0.00 0.00 0.00 0.00 0.00 0.00 0.00 0.00 0.00 0.00 0.00 0.00 0.00 0.00 0.00 0.00 0.00 0.00 0.00 0.00 0.00 0.00 0.00 0.00 0.00 0.00 0.00 0.00 0.00 0.00 0.00 0.01 0.03 0.00 0.00 0.00 0.00 0.00 0.00 0.00 0.00
0.00 0.00 0.00 0.00 0.00 0.00 0.00 0.00 0.00 0.00 0.00 0.00 0.00 0.00 0.00 0.00 0.00 0.00 0.00 0.00 0.00 0.00 0.00 0.00 0.00 0.00 0.00 0.00 0.00 0.00 0.00 0.00 0.00 0.00 0.00 0.04 0.06 0.00 0.00 0.00 0.00 0.00 0.00 0.00 0.00
0.00 0.00 0.00 0.00 0.00 0.00 0.00 0.00 0.00 0.00 0.00 0.00 0.00 0.00 0.00 0.00 0.00 0.00 0.00 0.00 0.00 0.00 0.00 0.00 0.00 0.00 0.00 0.00 0.00 0.00 0.00 0.00 0.00 0.00 0.00 0.03 0.04 0.00 0.00 0.00 0.00 0.00 0.00 0.00 0.00
0.00 0.00 0.00 0.00 0.00 0.00 0.00 0.00 0.00 0.00 0.00 0.00 0.00 0.00 0.00 0.00 0.00 0.00 0.00 0.00 0.00 0.00 0.00 0.00 0.00 0.00 0.00 0.00 0.00 0.00 0.00 0.00 0.00 0.00 0.00 0.00 0.00 0.00 0.00 0.00 0.00 0.00 0.00 0.00 0.00
0.00 0.00 0.00 0.00 0.00 0.00 0.00 0.00 0.00 0.00 0.00 0.00 0.00 0.00 0.00 0.00 0.00 0.00 0.00 0.00 0.00 0.00 0.00 0.00 0.00 0.00 0.00 0.00 0.00 0.00 0.00 0.00 0.00 0.00 0.00 0.00 0.00 0.00 0.00 0.00 0.00 0.00 0.00 0.00 0.00
0.00 0.00 0.00 0.00 0.00 0.00 0.00 0.00 0.00 0.00 0.00 0.00 0.00 0.00 0.00 0.00 0.00 0.00 0.00 0.00 0.00 0.00 0.00 0.00 0.00 0.00 0.00 0.00 0.00 0.00 0.00 0.00 0.00 0.00 0.00 0.00 0.00 0.00 0.00 0.00 0.00 0.00 0.00 0.00 0.00
0.00 0.00 0.00 0.00 0.00 0.00 0.00 0.00 0.00 0.00 0.00 0.00 0.00 0.00 0.00 0.00 0.00 0.00 0.00 0.00 0.00 0.00 0.00 0.00 0.00 0.00 0.00 0.00 0.00 0.00 0.00 0.00 0.00 0.00 0.00 0.00 0.00 0.00 0.00 0.00 0.00 0.00 0.00 0.00 0.00
0.00 0.00 0.00 0.00 0.00 0.00 0.00 0.00 0.00 0.00 0.00 0.00 0.00 0.00 0.00 0.00 0.00 0.00 0.00 0.00 0.00 0.00 0.00 0.00 0.00 0.00 0.00 0.00 0.00 0.00 0.00 0.00 0.00 0.00 0.00 0.00 0.00 0.00 0.00 0.00 0.00 0.00 0.00 0.00 0.00
0.00 0.00 0.00 0.00 0.00 0.00 0.00 0.00 0.00 0.00 0.00 0.00 0.00 0.00 0.00 0.00 0.00 0.00 0.00 0.00 0.00 0.00 0.00 0.00 0.00 0.00 0.00 0.00 0.00 0.00 0.00 0.00 0.00 0.00 0.00 0.00 0.00 0.00 0.00 0.00 0.00 0.00 0.00 0.00 0.00
0.00 0.00 0.00 0.00 0.00 0.00 0.00 0.00 0.00 0.00 0.00 0.00 0.00 0.00 0.00 0.00 0.00 0.00 0.00 0.00 0.00 0.00 0.00 0.00 0.00 0.00 0.00 0.00 0.00 0.00 0.00 0.00 0.00 0.00 0.00 0.00 0.00 0.00 0.00 0.00 0.00 0.00 0.00 0.00 0.00
0.00 0.00 0.00 0.00 0.00 0.00 0.00 0.00 0.00 0.00 0.00 0.00 0.00 0.00 0.00 0.00 0.00 0.00 0.00 0.00 0.00 0.00 0.00 0.00 0.00 0.00 0.00 0.00 0.00 0.00 0.00 0.00 0.00 0.00 0.00 0.00 0.00 0.00 0.00 0.00 0.00 0.00 0.00 0.00 0.00
0.00 0.00 0.00 0.00 0.00 0.00 0.00 0.00 0.00 0.00 0.00 0.00 0.00 0.00 0.00 0.00 0.00 0.00 0.00 0.00 0.00 0.00 0.00 0.00 0.00 0.00 0.00 0.00 0.00 0.00 0.00 0.00 0.00 0.00 0.00 0.00 0.00 0.00 0.00 0.00 0.00 0.00 0.00 0.00 0.00
0.00 0.00 0.00 0.00 0.00 0.00 0.00 0.00 0.00 0.00 0.00 0.00 0.00 0.00 0.00 0.00 0.00 0.00 0.00 0.00 0.00 0.00 0.00 0.00 0.00 0.00 0.00 0.00 0.00 0.00 0.00 0.00 0.00 0.00 0.00 0.00 0.00 0.00 0.00 0.00 0.00 0.00 0.00 0.00 0.00
0.00 0.00 0.00 0.00 0.00 0.00 0.00 0.00 0.00 0.00 0.00 0.00 0.00 0.00 0.00 0.00 0.00 0.00 0.00 0.00 0.00 0.00 0.00 0.00 0.00 0.00 0.00 0.00 0.00 0.00 0.00 0.00 0.00 0.00 0.00 0.00 0.00 0.00 0.00 0.00 0.00 0.00 0.00 0.00 0.00
0.00 0.00 0.00 0.00 0.00 0.00 0.00 0.00 0.00 0.00 0.00 0.00 0.00 0.00 0.00 0.00 0.00 0.00 0.00 0.00 0.00 0.00 0.00 0.00 0.00 0.00 0.00 0.00 0.00 0.00 0.00 0.00 0.00 0.00 0.00 0.00 0.00 0.00 0.00 0.00 0.00 0.00 0.00 0.00 0.00
0.00 0.00 0.00 0.00 0.00 0.00 0.00 0.00 0.00 0.00 0.00 0.00 0.00 0.00 0.00 0.00 0.00 0.00 0.00 0.00 0.00 0.00 0.00 0.00 0.00 0.00 0.00 0.00 0.00 0.00 0.00 0.00 0.00 0.00 0.00 0.00 0.00 0.00 0.00 0.00 0.00 0.00 0.00 0.00 0.00
0.00 0.00 0.00 0.00 0.00 0.00 0.00 0.00 0.00 0.00 0.00 0.00 0.00 0.00 0.00 0.00 0.00 0.00 0.00 0.00 0.00 0.00 0.00 0.00 0.00 0.00 0.00 0.00 0.00 0.00 0.00 0.00 0.00 0.00 0.00 0.00 0.00 0.00 0.00 0.00 0.00 0.00 0.00 0.00 0.00
0.00 0.00 0.00 0.00 0.00 0.00 0.00 0.00 0.00 0.00 0.00 0.00 0.00 0.00 0.00 0.00 0.00 0.00 0.00 0.00 0.00 0.00 0.00 0.00 0.00 0.00 0.00 0.00 0.00 0.00 0.00 0.00 0.00 0.00 0.00 0.00 0.00 0.00 0.00 0.00 0.00 0.00 0.00 0.00 0.00
0.00 0.00 0.00 0.00 0.00 0.00 0.00 0.00 0.00 0.00 0.00 0.00 0.00 0.00 0.00 0.00 0.00 0.00 0.00 0.00 0.00 0.00 0.00 0.00 0.00 0.00 0.00 0.00 0.00 0.00 0.00 0.00 0.00 0.00 0.00 0.00 0.00 0.00 0.00 0.00 0.00 0.00 0.00 0.00 0.00
0.00 0.00 0.00 0.00 0.00 0.00 0.00 0.00 0.00 0.00 0.00 0.00 0.00 0.00 0.00 0.00 0.00 0.00 0.00 0.00 0.00 0.00 0.00 0.00 0.00 0.00 0.00 0.00 0.00 0.00 0.00 0.00 0.00 0.00 0.00 0.00 0.00 0.00 0.00 0.00 0.00 0.00 0.00 0.00 0.00
0.00 0.00 0.00 0.00 0.00 0.00 0.00 0.00 0.00 0.00 0.00 0.00 0.00 0.00 0.00 0.00 0.00 0.00 0.00 0.00 0.00 0.00 0.00 0.00 0.00 0.00 0.00 0.00 0.00 0.00 0.00 0.00 0.00 0.00 0.00 0.00 0.00 0.00 0.00 0.00 0.00 0.00 0.00 0.00 0.00
MSLP
1016.65 1016.34 1016.06 1015.62 1015.36 1015.10 1014.75 1014.49 1014.10 1013.82 1013.47 1012.89 1012.50 1012.35 1011.89 1011.36 1010.27 1009.95 1007.77 1008.35 1008.33 1008.46 1008.68 1007.00 1007.07 1007.21 1006.77 1005.95 1005.38 1004.65 1004.34 1003.85 1003.65 1003.58 1004.38 1004.50 1004.46 1005.30 1005.80 1006.21 1006.59 1007.14 1007.70 1008.95 1010.18
1016.68 1016.30 1016.00 1015.67 1015.16 1014.90 1014.59 1014.39 1014.04 1013.55 1013.34 1012.96 1012.38 1012.02 1011.73 1011.29 1009.45 1007.11 1008.33 1008.38 1008.52 1008.48 1007.81 1006.94 1006.26 1006.74 1005.95 1005.16 1004.47 1003.79 1004.70 1003.89 1004.40 1004.27 1004.41 1004.80 1004.38 1005.06 1005.69 1006.07 1006.91 1007.26 1008.41 1009.71 1010.38
1016.75 1016.31 1015.85 1015.55 1015.22 1014.78 1014.44 1014.16 1013.81 1013.45 1013.00 1012.69 1012.33 1011.82 1011.52 1011.23 1008.46 1006.91 1008.26 1008.45 1008.67 1008.59 1007.57 1006.98 1006.39 1005.59 1005.36 1004.64 1004.08 1003.84 1004.24 1004.78 1005.01 1004.93 1004.96 1004.84 1004.82 1004.88 1004.71 1004.97 1006.13 1007.50 1008.78 1009.80 1010.43
1016.72 1016.29 1015.85 1015.45 1015.12 1014.63 1014.19 1013.93 1013.62 1013.27 1012.89 1012.47 1012.25 1011.74 1011.28 1009.99 1007.01 1007.46 1008.23 1008.48 1008.75 1008.17 1007.01 1006.36 1005.35 1004.11 1004.18 1003.84 1003.87 1004.93 1004.79 1004.94 1005.56 1005.21 1005.23 1005.22 1005.43 1005.12 1005.38 1005.99 1006.52 1007.77 1008.93 1009.64 1010.07
1016.76 1016.26 1015.77 1015.43 1015.00 1014.43 1014.05 1013.69 1013.40 1013.14 1012.70 1012.32 1012.08 1011.78 1010.54 1008.11 1006.52 1007.51 1008.30 1008.62 1008.44 1007.68 1007.00 1005.48 1004.60 1003.35 1003.24 1004.14 1003.90 1004.61 1004.91 1005.48 1005.79 1005.79 1005.84 1006.36 1005.84 1005.58 1006.09 1006.42 1007.28 1008.03 1008.91 1009.41 1009.70
1016.79 1016.25 1015.71 1015.22 1014.85 1014.21 1013.75 1013.41 1013.03 1012.75 1012.42 1012.15 1011.94 1011.79 1010.02 1006.64 1006.43 1006.99 1007.09 1007.96 1007.03 1006.49 1005.40 1005.09 1004.39 1004.06 1003.13 1003.37 1004.01 1004.13 1004.96 1005.84 1006.44 1006.29 1006.95 1007.18 1006.51 1006.10 1006.36 1006.65 1007.52 1008.31 1008.69 1009.05 1009.33
1016.75 1016.13 1015.53 1015.05 1014.60 1014.04 1013.48 1013.04 1012.71 1012.33 1012.01 1011.71 1011.67 1011.03 1008.16 1006.57 1006.22 1006.58 1006.73 1006.68 1006.32 1005.80 1005.01 1004.83 1004.68 1003.74 1003.06 1003.02 1004.41 1004.42 1004.67 1005.70 1006.77 1006.82 1006.57 1007.06 1005.98 1005.61 1006.15 1006.53 1007.30 1007.95 1008.43 1008.83 1009.19
1016.57 1016.04 1015.51 1014.90 1014.37 1013.75 1013.29 1012.70 1012.34 1012.02 1011.55 1011.32 1011.45 1010.10 1007.03 1006.65 1006.27 1006.57 1006.16 1006.02 1006.13 1005.68 1005.71 1005.17 1004.82 1003.97 1003.03 1003.38 1003.33 1003.14 1004.86 1004.69 1006.48 1006.46 1005.88 1006.57 1005.27 1005.51 1005.98 1006.24 1006.88 1007.50 1007.95 1008.50 1008.94
1016.62 1016.01 1015.28 1014.66 1014.15 1013.56 1012.93 1012.44 1011.93 1011.67 1011.35 1011.05 1010.41 1008.59 1006.48 1007.53 1006.52 1005.98 1005.97 1005.43 1005.47 1005.44 1005.21 1005.26 1004.71 1003.21 1002.72 1002.13 1001.95 1001.74 1003.27 1004.03 1005.21 1005.69 1005.64 1005.35 1004.75 1005.10 1005.48 1005.68 1006.19 1006.98 1007.53 1008.07 1008.54
1016.44 1015.84 1015.18 1014.51 1013.97 1013.38 1012.61 1012.24 1011.87 1011.51 1010.98 1009.70 1008.34 1007.07 1006.23 1005.90 1005.98 1005.98 1006.04 1005.96 1005.29 1004.88 1004.63 1004.52 1003.67 1002.77 1002.07 1001.76 1002.39 1001.42 1002.31 1003.64 1004.23 1004.79 1005.05 1004.40 1004.04 1004.17 1004.78 1004.94 1005.24 1006.08 1006.80 1007.43 1007.92
1016.33 1015.68 1015.01 1014.24 1013.61 1013.20 1012.33 1011.31 1011.02 1009.92 1008.24 1006.76 1005.91 1005.78 1005.48 1005.78 1006.32 1005.89 1005.85 1005.65 1005.36 1004.96 1004.06 1003.62 1002.93 1001.90 1001.91 1002.61 1003.04 1002.69 1002.47 1002.33 1003.78 1004.69 1004.26 1003.20 1003.16 1002.81 1003.94 1004.17 1004.32 1004.99 1005.96 1006.63 1007.17
1016.40 1015.64 1014.90 1014.12 1013.30 1012.82 1012.46 1008.91 1008.38 1008.17 1006.82 1006.70 1006.31 1005.88 1005.92 1005.58 1005.37 1005.50 1005.98 1005.39 1004.84 1004.25 1003.89 1003.33 1002.83 1002.09 1003.01 1003.62 1003.35 1002.84 1002.42 1002.08 1002.57 1003.85 1003.96 1003.28 1001.92 1001.54 1002.34 1003.21 1003.29 1004.05 1004.82 1005.69 1006.36
1016.32 1015.65 1014.93 1014.08 1013.23 1011.84 1009.54 1008.70 1008.32 1007.80 1006.17 1006.22 1005.50 1005.31 1005.44 1005.50 1004.78 1005.08 1005.49 1004.87 1004.51 1003.92 1003.39 1002.98 1003.08 1003.45 1003.98 1003.73 1003.38 1002.73 1002.32 1002.20 1002.55 1002.69 1002.51 1001.97 1001.10 1000.79 1001.24 1002.18 1002.86 1003.36 1004.04 1004.74 1005.37
1016.16 1015.50 1014.91 1014.04 1013.22 1009.59 1008.58 1008.58 1008.09 1008.08 1005.82 1005.80 1005.37 1005.42 1005.43 1004.87 1005.38 1005.93 1005.63 1005.00 1004.48 1003.62 1003.43 1003.21 1004.07 1004.27 1004.39 1003.97 1003.68 1002.82 1003.07 1003.37 1003.25 1002.76 1001.49 1001.21 1000.22 1000.06 1000.62 1001.07 1001.89 1002.55 1003.05 1003.89 1004.69
1015.94 1015.36 1014.79 1014.90 1012.30 1009.01 1008.53 1008.27 1008.18 1007.91 1004.68 1004.78 1004.61 1005.29 1005.06 1004.80 1005.11 1005.74 1005.81 1005.21 1004.23 1004.31 1004.57 1003.89 1004.50 1004.59 1004.48 1004.01 1004.75 1003.78 1004.09 1003.94 1003.39 1002.60 1001.69 1000.74 1000.22 999.20 999.82 999.82 1000.35 1000.83 1001.66 1002.65 1003.56
1015.72 1015.22 1014.76 1012.62 1011.55 1008.76 1008.68 1008.36 1008.24 1006.71 1003.89 1004.64 1004.72 1004.87 1004.75 1004.87 1005.25 1005.44 1005.29 1005.23 1005.14 1004.91 1004.73 1004.53 1005.66 1005.47 1005.04 1005.30 1005.39 1005.04 1004.48 1003.52 1002.79 1002.10 1000.70 1000.13 999.79 998.58 998.56 999.15 1000.03 1000.96 1001.74 1002.00 1002.82
1015.31 1014.86 1014.60 1011.74 1008.89 1008.60 1008.58 1008.12 1006.86 1004.62 1004.13 1004.21 1004.29 1004.45 1004.25 1004.59 1005.08 1005.00 1005.10 1005.12 1004.52 1004.63 1004.61 1005.37 1005.34 1005.90 1006.24 1005.36 1005.01 1004.96 1003.52 1002.12 1000.98 1000.39 999.44 998.81 998.99 999.00 999.80 1000.33 1001.59 1002.08 1002.77 1003.39 1003.41
1014.71 1014.27 1012.41 1010.80 1009.30 1009.12 1008.39 1007.34 1005.30 1003.50 1003.34 1003.79 1003.97 1003.92 1004.23 1004.83 1005.33 1005.48 1005.43 1005.31 1005.95 1005.40 1004.31 1004.62 1004.90 1005.74 1006.38 1006.02 1005.44 1005.11 1004.41 1002.78 1001.03 999.61 998.82 999.39 999.27 999.20 1000.58 1001.93 1002.73 1003.29 1004.06 1004.74 1004.69
1013.88 1011.94 1010.32 1009.55 1009.51 1009.17 1007.67 1005.80 1004.18 1002.91 1003.22 1004.08 1004.26 1004.06 1004.60 1005.39 1005.51 1005.80 1005.72 1005.50 1006.60 1006.80 1005.99 1005.13 1005.26 1006.54 1006.93 1006.98 1006.68 1005.33 1004.71 1003.64 1003.05 1001.73 1000.70 999.56 999.66 1000.70 1001.47 1002.59 1003.45 1004.00 1004.89 1005.61 1005.85
1013.23 1009.66 1008.49 1008.84 1008.97 1008.61 1007.05 1004.71 1003.24 1003.48 1003.62 1004.06 1003.80 1004.08 1004.42 1005.19 1005.83 1005.89 1006.35 1007.27 1007.63 1008.08 1007.76 1006.85 1006.52 1006.29 1006.77 1007.42 1006.92 1006.58 1005.95 1004.53 1003.43 1002.08 1000.77 999.75 999.44 999.49 1000.89 1002.63 1004.05 1004.76 1005.36 1006.08 1006.26
1012.85 1009.11 1008.26 1008.68 1008.66 1007.66 1005.58 1003.94 1003.80 1004.49 1004.35 1004.07 1003.84 1004.54 1004.46 1005.06 1005.74 1005.85 1006.17 1008.23 1008.74 1008.62 1008.71 1007.77 1007.47 1006.68 1007.45 1006.47 1005.84 1006.11 1005.98 1005.64 1004.70 1003.34 1001.80 1000.76 1000.04 1000.68 1002.01 1003.61 1004.68 1005.45 1006.05 1006.65 1006.89
1011.73 1008.58 1008.45 1008.47 1007.88 1006.32 1004.76 1003.83 1004.75 1004.76 1004.98 1004.72 1004.48 1004.80 1005.08 1005.87 1006.27 1006.48 1007.22 1008.23 1009.68 1009.57 1008.87 1008.99 1008.08 1006.68 1006.07 1006.30 1007.36 1007.22 1006.56 1005.74 1004.45 1003.95 1003.17 1002.42 1001.26 1001.70 1003.28 1004.14 1004.95 1005.85 1006.87 1007.39 1007.51
1011.21 1008.97 1008.92 1008.46 1006.66 1005.18 1004.74 1004.71 1005.09 1004.96 1005.09 1005.16 1005.28 1005.78 1006.19 1006.55 1007.16 1007.58 1008.21 1010.07 1010.55 1010.28 1010.42 1010.23 1008.85 1007.43 1006.49 1006.48 1007.24 1007.41 1006.79 1006.52 1005.87 1005.12 1004.13 1003.38 1002.11 1002.56 1003.68 1004.63 1005.11 1006.29 1007.16 1007.60 1007.76
1012.09 1009.37 1009.13 1008.61 1007.29 1005.73 1004.62 1004.99 1005.06 1005.33 1005.22 1005.54 1005.85 1006.53 1006.83 1007.21 1008.02 1008.21 1008.89 1010.58 1011.18 1011.22 1012.45 1012.21 1010.22 1009.18 1007.93 1006.93 1007.42 1007.38 1007.22 1006.99 1006.87 1005.86 1004.77 1003.93 1003.54 1003.35 1003.76 1004.55 1005.52 1006.61 1007.51 1008.07 1008.21
1011.99 1010.26 1010.57 1008.49 1007.65 1006.18 1005.24 1005.05 1005.31 1005.88 1006.23 1006.46 1006.76 1006.75 1007.05 1007.37 1008.02 1008.32 1008.84 1010.21 1011.49 1012.32 1012.69 1011.98 1010.68 1010.04 1009.37 1008.95 1008.53 1008.12 1007.81 1007.53 1007.18 1006.96 1006.46 1005.58 1005.22 1005.27 1005.57 1005.94 1006.51 1007.17 1007.91 1008.42 1008.62
1012.55 1012.26 1010.95 1009.51 1008.86 1007.54 1006.62 1006.00 1005.36 1005.87 1006.52 1006.61 1006.70 1006.94 1007.30 1007.72 1008.16 1008.20 1009.11 1009.89 1010.35 1011.44 1012.12 1011.56 1011.20 1011.16 1010.28 1009.84 1009.22 1008.59 1008.37 1008.18 1007.91 1007.78 1007.45 1007.02 1006.62 1006.95 1006.94 1006.87 1007.27 1007.99 1008.58 1008.78 1008.80
1013.92 1013.24 1012.32 1010.53 1009.22 1008.48 1007.27 1006.86 1006.33 1006.60 1007.32 1006.86 1007.22 1007.20 1008.04 1008.34 1009.00 1009.49 1009.78 1010.35 1010.82 1011.60 1011.49 1011.62 1011.48 1011.31 1010.22 1009.80 1009.19 1008.96 1008.34 1008.15 1007.93 1008.09 1007.91 1007.24 1007.19 1007.43 1008.17 1008.85 1009.40 1009.63 1009.61 1009.34 1008.86
Thickness
5746 5751 5755 5761 5765 5769 5773 5777 5782 5786 5789 5795 5798 5800 5805 5809 5819 5824 5833 5835 5835 5835 5834 5846 5841 5835 5838 5834 5844 5846 5798 5808 5816 5815 5811 5830 5822 5830 5832 5817 5820 5820 5814 5812 5810
5744 5749 5754 5760 5766 5770 5774 5777 5782 5788 5791 5795 5800 5803 5807 5811 5827 5840 5835 5837 5836 5837 5839 5835 5834 5833 5827 5836 5845 5835 5792 5820 5831 5831 5822 5826 5830 5826 5818 5815 5810 5815 5818 5812 5809
5742 5748 5754 5759 5764 5770 5775 5779 5783 5788 5794 5798 5801 5806 5809 5812 5825 5835 5837 5837 5836 5838 5845 5844 5843 5840 5825 5841 5843 5842 5817 5831 5830 5835 5834 5829 5828 5837 5828 5819 5821 5808 5808 5809 5806
5740 5746 5753 5758 5763 5770 5775 5779 5784 5789 5794 5799 5802 5807 5811 5821 5807 5839 5838 5837 5837 5842 5848 5842 5844 5840 5830 5830 5848 5817 5836 5837 5829 5839 5834 5826 5833 5828 5829 5822 5833 5824 5816 5813 5808
5738 5744 5751 5757 5763 5770 5775 5780 5784 5789 5795 5800 5803 5807 5820 5824 5827 5841 5837 5836 5839 5843 5836 5842 5839 5848 5834 5833 5842 5826 5832 5834 5836 5837 5835 5830 5826 5827 5823 5834 5832 5826 5818 5813 5813
5736 5743 5749 5756 5762 5770 5775 5781 5786 5791 5795 5800 5803 5806 5817 5816 5849 5845 5845 5839 5846 5847 5850 5850 5845 5851 5848 5843 5834 5844 5835 5828 5828 5830 5825 5812 5820 5828 5828 5836 5826 5821 5818 5818 5817
5736 5742 5749 5755 5761 5768 5775 5782 5787 5792 5797 5802 5804 5812 5823 5823 5853 5849 5848 5845 5852 5852 5846 5857 5857 5851 5856 5843 5846 5842 5826 5826 5816 5823 5825 5824 5816 5820 5836 5836 5824 5821 5821 5821 5820
5737 5742 5747 5754 5760 5768 5774 5782 5787 5792 5798 5802 5804 5815 5818 5846 5851 5846 5852 5847 5853 5857 5850 5858 5860 5853 5853 5857 5850 5842 5823 5811 5813 5823 5835 5816 5800 5830 5841 5834 5825 5825 5824 5823 5823
5734 5740 5748 5755 5760 5767 5774 5781 5787 5791 5796 5800 5808 5816 5811 5837 5832 5849 5851 5841 5848 5852 5855 5856 5853 5849 5855 5843 5837 5850 5811 5814 5812 5830 5827 5827 5815 5836 5845 5838 5830 5828 5827 5825 5825
5734 5741 5747 5753 5760 5766 5775 5779 5784 5789 5795 5806 5817 5808 5822 5817 5835 5841 5849 5844 5838 5841 5838 5838 5840 5834 5845 5838 5791 5831 5821 5816 5809 5825 5826 5827 5827 5841 5843 5842 5839 5835 5833 5829 5828
5732 5740 5746 5754 5761 5766 5776 5786 5785 5786 5802 5803 5811 5809 5818 5832 5836 5831 5840 5834 5834 5828 5813 5834 5820 5820 5832 5832 5830 5831 5829 5827 5820 5823 5822 5833 5833 5845 5843 5844 5843 5842 5836 5833 5831
5729 5737 5744 5752 5761 5767 5771 5791 5793 5797 5786 5805 5807 5811 5819 5829 5809 5821 5834 5814 5816 5804 5822 5820 5809 5837 5834 5826 5824 5827 5824 5829 5834 5827 5821 5823 5837 5856 5853 5846 5852 5847 5843 5839 5837
5727 5734 5741 5749 5758 5771 5789 5789 5802 5804 5786 5789 5807 5806 5809 5817 5808 5811 5822 5820 5808 5806 5815 5809 5815 5829 5815 5815 5813 5823 5821 5823 5817 5831 5840 5836 5831 5845 5859 5857 5854 5854 5852 5849 5844
5725 5732 5738 5747 5753 5783 5781 5793 5799 5799 5770 5769 5784 5796 5805 5813 5791 5815 5822 5815 5807 5803 5813 5814 5816 5810 5805 5804 5814 5805 5824 5818 5812 5810 5803 5842 5804 5841 5846 5849 5851 5851 5851 5849 5847
5723 5729 5736 5736 5757 5771 5782 5792 5794 5785 5740 5782 5787 5813 5806 5795 5798 5793 5817 5808 5796 5796 5799 5793 5797 5797 5794 5803 5807 5799 5815 5808 5810 5808 5814 5823 5815 5845 5856 5851 5851 5859 5860 5858 5856
5721 5726 5732 5748 5757 5778 5782 5786 5779 5746 5740 5763 5783 5778 5780 5789 5787 5796 5798 5811 5809 5793 5798 5796 5802 5798 5799 5803 5801 5807 5802 5809 5815 5811 5791 5820 5821 5840 5853 5853 5853 5853 5859 5858 5857
5719 5724 5728 5748 5762 5777 5779 5768 5737 5737 5775 5760 5765 5777 5779 5773 5775 5784 5780 5779 5780 5765 5768 5779 5784 5793 5794 5788 5803 5797 5800 5786 5790 5794 5796 5847 5828 5837 5849 5845 5837 5838 5840 5842 5851
5718 5723 5740 5750 5764 5768 5766 5746 5722 5766 5764 5780 5776 5779 5764 5771 5768 5771 5770 5766 5776 5778 5779 5766 5757 5779 5787 5781 5777 5783 5787 5779 5764 5798 5820 5830 5805 5833 5839 5836 5835 5833 5828 5828 5830
5717 5735 5745 5754 5757 5761 5750 5730 5743 5769 5775 5761 5766 5758 5754 5760 5764 5762 5764 5765 5764 5768 5755 5762 5761 5776 5775 5779 5778 5776 5771 5800 5779 5800 5790 5818 5824 5827 5827 5816 5817 5815 5812 5808 5813
5714 5739 5745 5752 5754 5749 5738 5737 5765 5774 5773 5768 5749 5762 5745 5751 5748 5754 5749 5754 5749 5757 5765 5757 5740 5768 5770 5770 5775 5766 5780 5768 5779 5751 5758 5802 5808 5811 5810 5795 5795 5799 5796 5797 5804
5707 5721 5741 5746 5746 5734 5729 5751 5757 5765 5767 5758 5757 5747 5757 5748 5751 5748 5748 5739 5743 5746 5751 5754 5747 5747 5754 5755 5760 5761 5756 5761 5771 5776 5763 5771 5797 5822 5800 5788 5781 5784 5785 5785 5789
5703 5705 5733 5738 5714 5733 5737 5754 5730 5751 5759 5755 5761 5755 5748 5744 5738 5739 5732 5733 5738 5738 5732 5740 5741 5737 5749 5763 5761 5753 5750 5760 5752 5750 5770 5769 5780 5812 5793 5789 5781 5775 5773 5775 5780
5691 5704 5720 5724 5706 5727 5739 5739 5743 5741 5742 5744 5741 5745 5746 5733 5717 5727 5726 5724 5726 5726 5720 5728 5728 5720 5734 5748 5745 5731 5748 5752 5756 5758 5745 5741 5771 5802 5785 5776 5774 5762 5764 5765 5768
5676 5682 5692 5704 5716 5721 5727 5724 5725 5742 5741 5743 5736 5736 5729 5720 5723 5712 5711 5711 5716 5718 5701 5705 5714 5709 5708 5728 5728 5721 5731 5739 5733 5725 5736 5746 5755 5773 5775 5762 5755 5751 5753 5754 5754
5673 5674 5672 5682 5695 5714 5726 5727 5718 5712 5729 5731 5720 5724 5719 5707 5707 5705 5712 5704 5703 5689 5695 5700 5692 5702 5709 5715 5718 5713 5715 5719 5715 5722 5708 5730 5724 5737 5739 5740 5740 5740 5739 5738 5740
5656 5650 5667 5678 5686 5697 5697 5709 5718 5717 5715 5712 5713 5719 5718 5706 5705 5700 5703 5698 5696 5696 5689 5699 5679 5683 5683 5697 5700 5694 5701 5704 5706 5705 5703 5710 5707 5728 5729 5731 5726 5722 5722 5723 5728
5645 5651 5651 5655 5677 5680 5693 5701 5710 5713 5712 5721 5716 5712 5701 5703 5708 5707 5707 5702 5695 5682 5681 5681 5675 5669 5667 5688 5686 5669 5689 5693 5696 5699 5697 5690 5706 5708 5694 5695 5695 5697 5703 5707 5714